Simultaneous Nadir Overpasses (SNOs) Predictions

Prediction of SNOs between METOP-A and TERRA Satellite Orbit:

Table of predicted SNOs for the next 14.0 days since TLE Epoch: 12/24/2016
Index Date (METOP-A) Time (METOP-A) Lat,Lon (METOP-A) SZA (METOP-A ) Date (TERRA) Time (TERRA) Lat,Lon (TERRA) SZA (TERRA ) Distance(km) Time Diff (sec)
1 12/24/2016 14:17:24 81.30, 12.65 107.30 12/24/2016 14:18:17 81.31, 12.81 107.35 2.78 53
2 12/24/2016 15:08:04 -81.31,-179.56 72.65 12/24/2016 15:07:44 -81.31,-179.61 72.67 0.81 20
3 12/27/2016 09:51:46 81.30, 79.22 107.18 12/27/2016 09:52:31 81.30, 79.07 107.18 2.56 45
4 12/27/2016 10:42:27 -81.31,-113.38 72.82 12/27/2016 10:41:58 -81.30,-113.34 72.83 1.07 29
5 12/30/2016 05:26:09 81.31, 145.77 107.00 12/30/2016 05:26:45 81.31, 145.69 107.01 1.38 36
6 12/30/2016 06:16:50 -81.31, -46.82 73.00 12/30/2016 06:16:12 -81.31, -46.70 73.00 2.10 38
7 01/02/2017 01:00:33 81.30,-148.09 106.71 01/02/2017 01:01:00 81.30,-148.08 106.72 0.42 27
8 01/02/2017 01:51:13 -81.31, 19.71 73.24 01/02/2017 01:50:27 -81.30, 19.54 73.29 3.10 46
9 01/04/2017 20:34:56 81.30, -81.57 106.41 01/04/2017 20:35:14 81.31, -81.48 106.43 1.56 18




NCC Satellite Simultaneous Nadir Overpasses (SNOs) Prediction Service
